Home   Weather   Stäfa   Past weeks

Flag for Switzerland Past Weather in Stäfa, Zurich, Switzerland — Yesterday and Last 2 Weeks

Now
81 °F

Partly sunny.


Feels Like: 80 °F
Forecast: 60 / 85 °F
Wind: 5 mph from Southwest

Location: Zuerich-Fluntern

Current Time: Jun 26, 2017 at 9:02:05 pm

Latest Report: Jun 26, 2017 at 8:00 pm


Visibility: N/A

Pressure: 29.75 "Hg

Humidity: 36%

Dew Point: 52 °F

Location of StäfaLocation

Past Weather in Stäfa — Graph

°F

Stäfa Temperature Yesterday

Maximum temperature yesterday: 77 °F (at 6:00 pm)
Minimum temperature yesterday: 63 °F (at 9:00 am)
Average temperature yesterday: 69 °F

High & Low Weather Summary for the Past Weeks

 TemperatureHumidityPressure
High90 °F (Jun 22, 4:00 pm)96% (Jun 16, 2:00 am)30.30 "Hg (Jun 16, 2:00 am)
Low55 °F (Jun 17, 4:00 am)23% (Jun 22, 2:00 pm)29.72 "Hg (Jun 26, 6:00 pm)
Average72 °F59%30.03 "Hg
* Reported Jun 11 7:00 pm — Jun 26 7:00 pm, Stäfa. Weather by CustomWeather, © 2017

Note: Actual official high and low records may vary slightly from our data, if they occured in-between our weather recording intervals... More about our weather records

Advertising

Stäfa Weather History for the Previous 24 Hours

Scroll right to see more
 ConditionsComfort  
Time TempWeatherWind HumidityBarometerVisibility
7:00 pm
Mon, Jun 26
83 °FPleasantly warm.2 mph33%29.72 "HgN/A
6:00 pm84 °FPleasantly warm.2 mph29%29.72 "HgN/A
5:00 pm86 °FPleasantly warm.3 mph31%29.74 "HgN/A
4:00 pm85 °FPleasantly warm.2 mph30%29.76 "HgN/A
3:00 pm85 °FPleasantly warm.3 mph33%29.78 "HgN/A
2:00 pm82 °FPleasantly warm.3 mph33%29.81 "HgN/A
1:00 pm79 °FPleasantly warm.3 mph40%29.84 "HgN/A
12:00 pm79 °FWarm.5 mph48%29.86 "HgN/A
11:00 am75 °FMild.3 mph52%29.89 "HgN/A
10:00 am70 °FMild.3 mph64%29.91 "HgN/A
9:00 am67 °FMild.2 mph72%29.94 "HgN/A
8:00 am64 °FMild.1 mph79%29.97 "HgN/A
7:00 am62 °FCool.1 mph84%29.98 "HgN/A
6:00 am61 °FCool.1 mph84%29.99 "HgN/A
5:00 am61 °FCool.1 mph81%30.00 "HgN/A
4:00 am62 °FCool.No wind79%30.01 "HgN/A
3:00 am62 °FMild.1 mph74%30.01 "HgN/A
2:00 am63 °FMild.1 mph68%30.01 "HgN/A
1:00 am64 °FMild.2 mph67%30.01 "HgN/A
12:00 am64 °FMild.1 mph63%30.01 "HgN/A
11:00 pm
Sun, Jun 25
66 °FMild.2 mph59%30.00 "HgN/A
10:00 pm69 °FMild.3 mph52%29.98 "HgN/A
9:00 pm72 °FMild.6 mph47%29.95 "HgN/A
Weather by CustomWeather, © 2017

See weather overviewHow to use our weather pages